Aiken, SC

2:04 PM EST on February 06, 2016 (GMT -0500)
Aiken Municipal

Weather History for KAIK - February, 2013

Change the Weather History Date:

Monday, February 11, 2013

  Actual Average Record
Temperature  
Mean Temperature 60 °F -  
Max Temperature 66 °F 60 °F 66 °F (2013)
Min Temperature 53 °F 32 °F 26 °F (2011)
Degree Days  
Heating Degree Days 6    
Growing Degree Days 10 (Base 50)    
Moisture  
Dew Point 63 °F    
Average Humidity 99    
Maximum Humidity 100    
Minimum Humidity 94    
Precipitation  
Precipitation 0.00 in - - ()
Sea Level Pressure  
Sea Level Pressure 30.13 in    
Wind  
Wind Speed 9 mph (SSW)    
Max Wind Speed 16 mph    
Max Gust Speed 21 mph    
Visibility 10 miles    
Events Rain    
Averages and records for this station are not official NWS values.
T = Trace of Precipitation, MM = Missing Value Source: NWS Daily Summary

Daily Weather History Graph

Daily Weather History Graph

Search for Another Location

Airport or City:

Trip Planner

Search our weather history database for the weather conditions in past years. The results will help you decide how hot, cold, wet, or windy it might be!

Date:

Astronomy

Feb. 11, 2013 Rise Set
Actual Time 7:14 AM EST 6:07 PM EST
Civil Twilight 6:49 AM EST 6:33 PM EST
Nautical Twilight 6:19 AM EST 7:02 PM EST
Astronomical Twilight 5:50 AM EST 7:31 PM EST
Moon 7:45 AM EST (2/11) 7:54 PM EST (2/11)
Length of Visible Light 11h 44m
Length of Day
10h 53m
Waxing Crescent, 3% of the Moon is Illuminated
Feb 11
Waxing Crescent
Feb 17
First Quarter
Feb 25
Full
Mar 4
Last Quarter
Mar 11
New

Hourly Weather History & Observations

Time (EST) Temp. Dew Point Humidity Pressure Visibility Wind Dir Wind Speed Gust Speed Precip Events Conditions
12:15 AM 53.6 °F - N/A% 30.24 in 7.0 mi East 6.9 mph - N/A Rain Rain
12:35 AM 53.6 °F - N/A% 30.23 in 7.0 mi East 6.9 mph - N/A Rain Rain
12:55 AM 53.6 °F - N/A% 30.22 in 7.0 mi East 5.8 mph - N/A Rain Rain
1:15 AM 53.6 °F - N/A% 30.21 in 7.0 mi East 6.9 mph - N/A Rain Heavy Rain
1:35 AM 53.6 °F - N/A% 30.20 in 10.0 mi ESE 5.8 mph - N/A Rain Light Rain
1:55 AM 53.6 °F - N/A% 30.18 in 10.0 mi ESE 9.2 mph - N/A Rain Rain
2:15 AM 53.6 °F - N/A% 30.18 in 10.0 mi SSE 6.9 mph - N/A   Drizzle
2:35 AM 53.6 °F - N/A% 30.18 in 10.0 mi SE 5.8 mph - N/A   Drizzle
2:55 AM 55.4 °F - N/A% 30.16 in 10.0 mi SSE 10.4 mph 18.4 mph N/A Rain Light Rain
3:15 AM 55.4 °F - N/A% 30.14 in 10.0 mi SE 8.1 mph 16.1 mph N/A Rain Rain
3:35 AM 55.4 °F - N/A% 30.13 in 10.0 mi SSE 9.2 mph - N/A   Drizzle
4:15 AM 55.4 °F - N/A% 30.14 in 10.0 mi South 10.4 mph - N/A   Drizzle
4:35 AM 57.2 °F - N/A% 30.13 in 10.0 mi South 11.5 mph 16.1 mph N/A Rain Light Rain
4:55 AM 57.2 °F - N/A% 30.14 in 10.0 mi South 10.4 mph - N/A Rain Rain
5:15 AM 57.2 °F - N/A% 30.13 in 10.0 mi South 11.5 mph - N/A Rain Rain
5:35 AM 59.0 °F - N/A% 30.14 in 10.0 mi SSW 10.4 mph 19.6 mph N/A Rain Rain
5:55 AM 59.0 °F - N/A% 30.14 in 7.0 mi SSW 12.7 mph 19.6 mph N/A Rain Light Rain
6:15 AM 59.0 °F - N/A% 30.14 in 7.0 mi South 11.5 mph 17.3 mph N/A Rain Rain
6:35 AM 59.0 °F - N/A% 30.13 in 10.0 mi South 11.5 mph 18.4 mph N/A Rain Rain
6:55 AM 59.0 °F - N/A% 30.13 in 10.0 mi South 12.7 mph - N/A Rain Rain
7:15 AM 59.0 °F - N/A% 30.13 in 10.0 mi South 13.8 mph 20.7 mph N/A Rain Light Rain
7:35 AM 59.0 °F - N/A% 30.13 in 10.0 mi South 12.7 mph 18.4 mph N/A Rain Rain
7:55 AM 59.0 °F - N/A% 30.12 in 10.0 mi South 16.1 mph - N/A Rain Light Rain
8:15 AM 59.0 °F - N/A% 30.13 in 10.0 mi South 11.5 mph 15.0 mph N/A Rain Light Rain
8:35 AM 59.0 °F - N/A% 30.15 in 10.0 mi SSW 12.7 mph 18.4 mph N/A Rain Light Rain
8:55 AM 59.0 °F - N/A% 30.15 in 10.0 mi South 10.4 mph 16.1 mph N/A Rain Rain
9:15 AM 59.0 °F - N/A% 30.13 in 10.0 mi South 13.8 mph 17.3 mph N/A   Light Drizzle
9:35 AM 59.0 °F - N/A% 30.14 in 10.0 mi South 11.5 mph 17.3 mph N/A   Light Drizzle
9:55 AM 60.8 °F - N/A% 30.13 in 10.0 mi South 11.5 mph 16.1 mph N/A Rain Light Rain
10:15 AM 60.8 °F - N/A% 30.10 in 10.0 mi South 11.5 mph 18.4 mph N/A Rain Light Rain
10:35 AM 60.8 °F - N/A% 30.09 in 10.0 mi South 12.7 mph - N/A   Overcast
10:55 AM 60.8 °F - N/A% 30.11 in 10.0 mi SSW 11.5 mph 18.4 mph N/A   Overcast
11:15 AM 62.6 °F - N/A% 30.12 in 10.0 mi SW 13.8 mph 19.6 mph N/A   Overcast
11:35 AM 62.6 °F - N/A% 30.13 in 10.0 mi SW 12.7 mph - N/A   Overcast
11:55 AM 62.6 °F - N/A% 30.14 in 10.0 mi WSW 12.7 mph 20.7 mph N/A   Overcast
12:15 PM 62.6 °F 62.6 °F 100% 30.13 in 10.0 mi SW 13.8 mph 18.4 mph N/A   Overcast
12:35 PM 64.4 °F 64.4 °F 100% 30.12 in 10.0 mi SW 9.2 mph - N/A   Overcast
12:55 PM 66.2 °F 64.4 °F 94% 30.11 in 10.0 mi WSW 13.8 mph 19.6 mph N/A   Overcast
1:15 PM 64.4 °F 64.4 °F 100% 30.12 in 10.0 mi WSW 16.1 mph - N/A   Overcast
1:35 PM 64.4 °F 64.4 °F 100% 30.11 in 10.0 mi SW 15.0 mph 18.4 mph N/A   Overcast
1:55 PM 66.2 °F 64.4 °F 94% 30.10 in 10.0 mi SW 8.1 mph - N/A   Overcast
2:15 PM 66.2 °F 64.4 °F 94% 30.09 in 10.0 mi WSW 10.4 mph 16.1 mph N/A Rain Light Rain
2:35 PM 64.4 °F 64.4 °F 100% 30.10 in 10.0 mi WSW 12.7 mph - N/A   Overcast
2:55 PM 66.2 °F 64.4 °F 94% 30.09 in 10.0 mi SW 8.1 mph - N/A   Scattered Clouds
3:15 PM 64.4 °F 64.4 °F 100% 30.09 in 10.0 mi SW 8.1 mph - N/A Rain Light Rain
3:35 PM 64.4 °F 64.4 °F 100% 30.10 in 10.0 mi SW 8.1 mph - N/A   Overcast
3:55 PM 64.4 °F 64.4 °F 100% 30.09 in 10.0 mi WSW 8.1 mph - N/A   Mostly Cloudy
4:15 PM 64.4 °F 64.4 °F 100% 30.09 in 10.0 mi WSW 6.9 mph - N/A Rain Light Rain
4:35 PM 64.4 °F 64.4 °F 100% 30.10 in 10.0 mi WSW 5.8 mph - N/A Rain Rain
4:55 PM 62.6 °F 62.6 °F 100% 30.10 in 10.0 mi WSW 8.1 mph - N/A Rain Light Rain
5:55 PM 60.8 °F - N/A% 30.10 in 10.0 mi WSW 4.6 mph - N/A Rain Light Rain
6:15 PM 60.8 °F - N/A% 30.11 in 10.0 mi SW 8.1 mph - N/A Rain Rain
6:35 PM 60.8 °F - N/A% 30.11 in 10.0 mi SW 3.5 mph - N/A Rain Light Rain
6:55 PM 60.8 °F - N/A% 30.10 in 10.0 mi WSW 10.4 mph - N/A Rain Light Rain
7:15 PM 59.0 °F 59.0 °F 100% 30.13 in 10.0 mi SW 6.9 mph - N/A Rain Light Rain
7:35 PM 59.0 °F - N/A% 30.10 in 10.0 mi SW 9.2 mph - N/A Rain Light Rain
7:55 PM 57.2 °F 57.2 °F 100% 30.10 in 10.0 mi WSW 6.9 mph - N/A Rain Rain
8:15 PM 55.4 °F - N/A% 30.11 in 10.0 mi West 6.9 mph - N/A Rain Light Rain
8:35 PM 55.4 °F - N/A% 30.11 in 10.0 mi SW 8.1 mph - N/A Rain Rain
8:55 PM 55.4 °F - N/A% 30.11 in 7.0 mi WSW 5.8 mph - N/A Rain Light Rain
9:15 PM 55.4 °F - N/A% 30.10 in 10.0 mi WSW 3.5 mph - N/A Rain Light Rain
9:35 PM 55.4 °F - N/A% 30.10 in 10.0 mi WSW 5.8 mph - N/A Rain Rain
9:55 PM 55.4 °F - N/A% 30.11 in 10.0 mi SW 3.5 mph - N/A Rain Rain
10:15 PM 55.4 °F - N/A% 30.11 in 10.0 mi SW 5.8 mph - N/A Rain Rain
10:35 PM 55.4 °F - N/A% 30.11 in 10.0 mi SSW 8.1 mph - N/A Rain Light Rain
10:55 PM 55.4 °F - N/A% 30.11 in 10.0 mi SSW 9.2 mph - N/A Rain Rain
11:15 PM 55.4 °F - N/A% 30.08 in 10.0 mi South 8.1 mph - N/A Rain Rain
11:35 PM 55.4 °F - N/A% 30.09 in 10.0 mi SSW 8.1 mph - N/A Rain Light Rain
11:55 PM 53.6 °F - N/A% 30.12 in 10.0 mi WSW 9.2 mph - N/A Rain Light Rain